Погода в Нешкан

Россия / Чукотский автономный округ     67°02′13″N   172°57′51″W
темп.,
°C
ветер,
м/с
пор.,
м/с
влажн.,
%
обл.,
%
осадки,
мм/ч
давл.,
гПа
погр.,
м
13 апреля, вт
вт1300:00−15с111785100 0.0 1008603
03:00−15с101593100 0.4 1007704
06:00−15с91395100 1.6 1007714
09:00−14с81193100 1.1 1006691
12:00−13с81091100 2.0 1006654
15:00−12с81092100 0.6 1006605
18:00−12с71194100 1.2 1007513
21:00−13с61095100 0.9 1008428
14 апреля, ср
ср1400:00−12ссз5995100 1.8 1009387
03:00−13ссз5893100 0.3 1010276
06:00−12ссз5795100 0.9 1011344
09:00−11ссз5690100 0.5 1013381
12:00−9ссз5693100 1.4 1014384
15:00−7сз5694100 1.2 1015341
18:00−8зсз5895100 1.8 1016290
21:00−9зсз6993100 0.2 1017227
15 апреля, чт
чт1500:00−10зсз61094100 0.4 1019287
03:00−12з61094100 0.5 1020307
06:00−12з61094100 1.0 1020342
09:00−11зсз7892100 0.6 1021357
12:00−10зсз6789100 0.8 1022412
15:00−9зсз5690100 0.1 1023384
18:00−10з4694100 0.3 1025149
21:00−14зюз449894 0.1 102664
16 апреля, пт
пт1600:00−16зюз359975 0.1 102750
03:00−18ююз339829 0.0 102618
06:00
09:00−7ююз4886100 0.0 1026191
12:00−4ююз6127998 0.0 1024416
15:00−3ююз61378100 0.0 1023537
18:00−4ю71275100 0.0 1022298
21:00−4ю61286100 0.1 1020301
17 апреля, сб
сб1700:00−4ю61387100 0.1 1019294
03:00−3ююз71288100 0.0 1018233
06:00−3юз7149114 0.0 1019233
09:000ююз8138866 0.0 1019395
12:00+1ююз6129099 0.0 1020331
15:00+1ююз599054 0.0 1021200
18:00−1ю339194 0.0 102124
21:00−4ююв3392100 0.0 102122